User: anonymous   Login
Location: Deer Lake
(49.1830°N, 57.4330°W)
Time: 06:52:28
(UTC-03:-30)
Language:

Cosmos 1707 - Orbit

View from above orbital plane
View from above orbital plane
View from above satellite
View from above satellite

Ground track
Ground track

The orbit data is extracted from the following two-line orbital elements,

1 16326U 85113A   15026.11736021  .00002485  00000-0  15056-3 0  1150
2 16326 082.5139 344.4839 0013905 075.0895 285.1873 15.10074180585408
Epoch (UTC): 26 January 2015 02:48:59
Eccentricity: 0.0013905
inclination: 82.5139°
perigee height: 526 km
apogee height: 545 km
right ascension of ascending node: 344.4839°
argument of perigee: 75.0895°
revolutions per day: 15.10074180
mean anomaly at epoch: 285.1873°
orbit number at epoch: 58540

The dashed part of the orbit path shows where the satellite is in the earth's shadow,  

DLR